Back to catalog

HALCA

MUSES B

AliveScienceHEO
NORAD 24720·PAYLOAD·🇯🇵 Japan

Launched Feb 12, 1997 from Uchinoura Space Center

Loading…

Next Passes (next 24 hours)

TLE

FreshSource: Space-Track

Epoch: Sep 14, 2026, 12:18 UTC

1 24720U 97005A   26257.51273073  .00000296  00000-0  12509-2 0  9992
2 24720  31.2065 216.2538 5980159 314.3689 281.4173  3.84902768413104

Track HALCA in real time with AllMySat

Download on the App Store